Regional Weather Roundup
Issued by NWS

Current Version | Previous Version | Text Only | Print | Product List | Glossary On
Versions: 1 2 3 4 5 6 7 8 9 10 11 12 13 14 15 16 17 18 19 20 21 22 23 24 25 26 27 28 29 30 31 32 33 34 35 36 37 38 39 40 41 42 43 44 45 46 47 48 49 50
031
ASUS42 KTBW 300817
RWRFL
FLORIDA REGIONAL WEATHER ROUNDUP
NATIONAL WEATHER SERVICE TAMPA BAY RUSKIN FL
400 AM EDT MON MAY 30 2016

NOTE: "FAIR" INDICATES FEW OR NO CLOUDS BELOW 12,000 FEET WITH NO
SIGNIFICANT WEATHER AND/OR OBSTRUCTIONS TO VISIBILITY.

FLZ001>010-012>015-112-114-115-300900-
PANHANDLE FLORIDA

CITY           SKY/WX    TMP DP  RH WIND       PRES   REMARKS
PENSACOLA      PTCLDY    75  69  81 W6        30.00F
MILTON NAS     PTCLDY    68  68 100 NW3       30.01
CRESTVIEW      CLEAR     67  65  93 CALM      30.02F
DUKE FIELD     FAIR      72  67  83 W6        29.99F
VALPARAISO     PTCLDY    72  68  87 CALM      29.99F
PANAMA CITY    FAIR      71  67  87 NW3       29.99F
TYNDALL AFB    CLEAR     73  71  93 W3        30.00S
APALACHICOLA   CLEAR     72  71  97 NW3       29.99F

STATION/POSITION SKY/WX   TEMP    WIND        PRES    WAVE   SWELL
                          AIR SEA DIR/SP/G            HT/PER HT/PER
                          (F)     (DEG/KT/KT) (MB)    (FT/S) (FT/S)
30.1N   87.6W              81 81     CALM     1015.3F   1/ 2
29.2N   88.2W              78 81  250/  6/  8 1017.0F
28.8N   86.0W              79 81  330/ 12/ 12 1016.2F   1/ 6
PANAMA CITY BEAC           78 80  310/  8/ 10 1016.4F
TOWER C                    78     310/ 12/ 13 1016.2F
28.5N   84.5W              78 80  310/ 10/ 10 1015.6F   1

$$
FLZ011-016>038-118-127-128-134-139-239-300900-
NORTH FLORIDA

CITY           SKY/WX    TMP DP  RH WIND       PRES   REMARKS
MARIANNA       CLEAR     71  70  96 CALM      29.99F
TALLAHASSEE    CLEAR     72  68  87 CALM      29.99S
PERRY          CLEAR     71  69  95 CALM      29.99S
LIVE OAK         N/A     70  70 100 CALM      29.99F
CROSS CITY       N/A     70  67  90 CALM      29.98S
LAKE CITY      FAIR      68  68 100 CALM      29.98S
GAINESVILLE    CLEAR     68  66  93 CALM      29.98S
WILLISTON      FAIR      72  70  94 CALM      29.99S
PALATKA        FAIR      66  66 100 CALM      29.98S
MAYPORT NAS    CLEAR     73  68  84 W5        29.96F
JACKSONVILLE   MOCLDY    68  67  96 W3        29.96F
JAX NAS        CLEAR     74  66  76 SW7       29.97F
JAX CECIL        N/A     64  64 100 CALM      29.97S
FERNANDINA BEA MOCLDY    75  68  78 W7        29.95S
ST AUGUSTINE   CLEAR     71  68  90 SW7       29.98S
PALM COAST     FAIR      68  68 100 SW3       29.98R

STATION/POSITION SKY/WX   TEMP    WIND        PRES    WAVE   SWELL
                          AIR SEA DIR/SP/G            HT/PER HT/PER
                          (F)     (DEG/KT/KT) (MB)    (FT/S) (FT/S)
SHELL POINT                76     300/  7/  9 1014.4
KEATON BEACH               80     300/  9/ 10 1014.9S
CEDAR KEY                  78      CALM  /  1 1015.6S
FERNANDINA                 75 80  250/  3/  4 1014.8F
30.7N   81.3W                 78                N/A     2/ 8
MAYPORT                    75 79  250/  6/  8 1014.8F
31.4N   80.9W              75 76  270/ 10/ 10 1013.6F   2/ 8   2/ 8
ST AUGUSTINE               72 80  240/  7/ 10 1015.6F

$$
FLZ040-043>046-052-053-057-058-063-144-300900-
INTERIOR CENTRAL FLORIDA

CITY           SKY/WX    TMP DP  RH WIND       PRES   REMARKS
OCALA          CLEAR     72  66  83 SW3       29.99S
THE VILLAGES     N/A     73  72  94 MISG      29.89F
LEESBURG       CLEAR     73  68  84 SW5       30.00S
SANFORD        CLEAR     73  70  90 SW5       29.98F
ORLANDO EXEC   CLEAR     75  71  87 W6        29.99S
ORLANDO INTL   PTCLDY    71  69  93 S3        29.99F
WINTER HAVEN   CLEAR     71  67  87 SW3       30.01F
LAKELAND       PTCLDY    70  68  94 CALM      30.01S
BARTOW         MOCLDY    68 N/A N/A CALM      30.01S
OKEECHOBEE     CLEAR     64  64 100 CALM      30.00S

$$
FLZ041-047-054-059-064-141-147-300900-
EAST CENTRAL FLORIDA

CITY           SKY/WX    TMP DP  RH WIND       PRES   REMARKS
DAYTONA BEACH  CLEAR     70  69  97 S6        29.98S
JFK SPACE CTR  CLEAR     73  70  91 SW3       29.98S
CAPE CANAVERAL CLEAR     74  70  87 SW3       29.98S
PATRICK AFB    PTCLDY    74  69  82 SW8       29.98F
MELBOURNE        N/A    N/A N/A N/A MISG      29.99S
VERO BEACH     CLEAR     70  67  90 CALM      30.00S
FT PIERCE      MOCLDY    71  69  93 NW3       29.99F
STUART         CLEAR     75  72  88 CALM      29.99F

STATION/POSITION SKY/WX   TEMP    WIND        PRES    WAVE   SWELL
                          AIR SEA DIR/SP/G            HT/PER HT/PER
                          (F)     (DEG/KT/KT) (MB)    (FT/S) (FT/S)
28.5N   80.2W              78 80  160/  8/ 10 1015.3F
28.9N   78.5W              78 79  200/  8/  8 1015.4F
TRIDENT PIER               76 82  180/  2/  3 1015.5F
28.4N   80.5W                 81                N/A     2/ 8
27.5N   80.2W                 81                N/A     2/ 8

$$
FLZ050-056-061-142-242-148-248-149-249-151-251-155-255-
160-260-300900-
WEST CENTRAL FLORIDA

CITY           SKY/WX    TMP DP  RH WIND       PRES   REMARKS
CRYSTAL RIVER  FAIR      72  72 100 CALM      29.99S
INVERNESS      FAIR      70  70 100 CALM      30.00S
BROOKSVILLE    PTCLDY    69  69 100 CALM      30.01S
ZEPHYRHILLS    FAIR      61  59  91 CALM      30.01S
CLEARWATER AIR FAIR      72  68  88 CALM      30.00R
ST PETE CLEARW CLEAR     74  67  78 CALM      30.00S
TAMPA INTL     PTCLDY    75  68  78 CALM      30.01S
TAMPA EXEC     PTCLDY    70  66  88 CALM      30.01S
PLANT CITY     PTCLDY    70  70 100 CALM      30.02S
MACDILL AFB    MOCLDY    71  68  90 NE2       30.00S
PETER O KNIGHT PTCLDY    77  72  83 CALM      30.01R
ST PETERSBURG  PTCLDY    77  69  76 CALM      29.98S
SARASOTA       CLEAR     74  66  76 E3        29.98S
VENICE         NOT AVBL

STATION/POSITION SKY/WX   TEMP    WIND        PRES    WAVE   SWELL
                          AIR SEA DIR/SP/G            HT/PER HT/PER
                          (F)     (DEG/KT/KT) (MB)    (FT/S) (FT/S)
27.3N   84.2W                 81                N/A     1
CLEARWATER BEACH           79 84  200/  4/  5 1016.0F
MIDDLE TAMPA BAY NOT AVBL
VENICE                     74 81   60/  4/  4 1015.3F

$$
FLZ066-069-070-075>078-162-262-165-265-300900-
SOUTHWEST FLORIDA AND KEYS

CITY           SKY/WX    TMP DP  RH WIND       PRES   REMARKS
PUNTA GORDA    PTCLDY    69  67  93 CALM      30.00F
FT MYERS       CLEAR     73  69  87 CALM      29.98S
SOUTHWEST INTL CLEAR     72  67  84 CALM      29.98S
NAPLES           N/A    N/A N/A N/A MISG      29.97F
MARCO ISLAND   PTCLDY    70  64  83 SE3       29.98S
MARATHON       PTCLDY    81  71  71 E6        29.96F
KEY WEST NAS   CLEAR     79  73  82 E3        29.96F
KEY WEST INTL  PTCLDY    80  73  79 SE7       29.97S

STATION/POSITION SKY/WX   TEMP    WIND        PRES    WAVE   SWELL
                          AIR SEA DIR/SP/G            HT/PER HT/PER
                          (F)     (DEG/KT/KT) (MB)    (FT/S) (FT/S)
NAPLES                        84              1015.0F
26.0N   85.6W              80 82  360/  2/  2 1016.0F   1
DRY TORTUGAS               81      40/  3/  4 1014.8F
SAND KEY                   81     110/  8/  9 1015.1F
LONG KEY                   81 86  140/ 11/ 12 1014.9F

$$
FLZ067-068-071>074-168-172>174-300900-
SOUTHEAST FLORIDA

CITY           SKY/WX    TMP DP  RH WIND       PRES   REMARKS
W PALM BEACH   PTCLDY    76  70  82 CALM      29.99F
FT LAUDER-EXEC PTCLDY    76  70  82 CALM      29.97F THUNDER
FT LAUDERDALE  MOCLDY    77  71  82 SE6       29.97F THUNDER
POMPANO BEACH  PTCLDY    75  73  93 CALM      29.98F
PEMBROKE PINES MOCLDY    76  71  85 E5        29.99F
OPA LOCKA      PTCLDY    76  71  85 N5        29.98F
MIAMI          PTCLDY    77  71  82 N3        29.98F
WEST KENDALL   CLEAR     73  70  90 CALM      29.97F
HOMESTEAD      CLEAR     74  71  90 NW3       29.97F

STATION/POSITION SKY/WX   TEMP    WIND        PRES    WAVE   SWELL
                          AIR SEA DIR/SP/G            HT/PER HT/PER
                          (F)     (DEG/KT/KT) (MB)    (FT/S) (FT/S)
PORT EVERGLADES            77     360/  2/  3 1015.1F
VIRGINIA KEY               80 83   CALM  /  2 1015.6F
LAKE WORTH                 77 83  310/  5/  7 1015.5F
FOWEY ROCKS                80 82   50/  4/  4 1015.5F
SETTLEMENT POINT           78     120/  3/  4 1016.2R

$$





USA.gov is the U.S. government's official web portal to all federal, state and local government web resources and services.